CamptonHillsWeather.com

Find the Weather for any City, State  
or Zipcode, or Country:

Campton Hills, IL Weather
Local Radar

Local Radar

Graphs, Details
Graphs and Gauges
Detailed Weather
Detailed Reports
Ajax Version (old)
Central Kane Co Summary
Davis Current Weather Graphs
Davis 24 Hour Weather History

CW3778 Data

Weather Underground
Maps
Temperature
Heat Index
Windchill
Humidity
Radar
Dew Point
Wind
Visibility
Visible Satellite
Satellite
Fronts
Snow Depth
Jet Stream
Flight Rules
Forecast Maps
Temperature Forecast
Maximum Temperature Forecast
Minimum Temperature Forecast
Dewpoint Forecast
Prevalent Weather
12Hr Probability of Precip.
Sky Cover
Health Maps
UV Forecast
Air Quality
Peak Air Quality Index
Weather Station
Davis Instruments Vantage Pro
Current Conditions [Select Refresh to Update]

Updated: 7:01pm on 7/11/14

(location)
Currently:
74.2F

Clear
Scattered Clouds

High: 77.4 F< 
(2:25pm
Low: 56.4 F 
(6:10am)
Wind: SSW 0 mph
Calm
Gust: 0 mph
Today's High Wind: 8 mph (11:14am)
Humidity: 68%
Pressure: 30.09 in  (Steady
Pressure Rate: -0.002 in/hr
Dew Point: 63.0F
Wind Chill: 74.2 F
Heat Index (feels like): 76.9 F
Comfort Level: Comfortable
Temperature Rate:  -0.25F/hr
 
5 Day Forecast
 
Fri Sat Sun Mon Tue
Clear Clear Clear Clear Clear
Mostly Cloudy T-storms Chance T-storms Clear Chance Rain
81 84 84 79 68
66 72 63 55 55

Records and Normals
 
Temperature Forecast Normal Record
High 81 86 90
(2005)
Low 66 63 50
(1997)
 
Links
 
 
Weather Advisories
No Advisories
Full Advisory Text...
Weather Map

Web Cam

Almanac
 
Sunrise:  
5:29am
Moonrise: 
7:38pm

Moon Phase:
99%

Sunset: 
8:31pm
Moonset:  
4:41am
 Star Chart...
Rainfall Totals
Hourly Rain 0.00 in
Daily Rain: 0.00 in
Monthly Rain: 0.79 in
Yearly Rain: 19.97 in
Normal Rain, month to date: 0.68 in
Normal Rain, year to date: 15.26 in
Link to Village of Campton Hills Map

Link to Counties of Illinois Map

Local Weather Exchange Network
Station ID City 
(Click for Map Location)
Neighborhood 
(Click for History)
Last Update (Date & Time) Temperature
 ()
Dew
Point ()
Humidity 
(%)
Wind 
(mph)
from the Wind Gust 
(mph) 
Pressure(in) Hourly
Rain(in)
KILSTCHA10 St. Charles Hunt Club 07/11 18:54:05 76.6 68.0 73 0 ENE 0 29.71 0.00
KILSOUTH6 South Elgin Thornwood 07/11 18:43:48 77.0 63.0 62 0 ENE 0 29.99 0.00
KILCAMPT3 Campton Hills Campton Hills 07/11 18:54:11 75.6 62.0 62 0 WSW 0 30.10 0.00
KILGENEV6 Geneva Dover Ridge 07/11 18:54:12 76.0 62.0 62 3 SSW 3 30.06 0.00
KILGENEV3 Geneva Mill Creek (NE) 07/11 18:54:11 75.6 61.0 61 0 South 4 30.07 0.00
KILSTCHA1 St Charles CamptonHillsWeather.com Central Kane County 07/11 18:54:12 74.3 64.0 69 0 SSW 0 30.09 0.00
KILELGIN13 Elgin Creek Side 07/11 18:54:12 77.0 60.0 55 1 SW 1 29.21 0.00
KILSOUTH5 South Elgin Concord Park 07/11 18:41:44 77.2 60.0 56 1 South 0 29.89 0.00
KILGENEV2 Geneva Mill Creek 07/11 18:39:51 75.2 59.0 58 2 South 6 30.04 0.00
KILELBUR7 Elburn Cheval-De-Selle 07/11 18:53:40 72.1 63.0 74 0 NNW 0 30.02 0.00
KILBATAV1 Batavia Tri-Cities on the Fox River 07/11 18:52:37 76.8 58.0 53 0 South 6 30.15 0.00
KILELBUR5 Elburn Prairie Highlands 07/11 18:50:15 75.4 62.0 63 1 SE 5 30.07 0.00
MD7322 Elburn APRSWXNET Elburn IL US 07/11 18:12:00 75.0 62.0 63 0 ESE 2 30.07 0.00
KILBATAV3 Batavia West Batavia 07/11 18:51:09 76.0 62.0 61 0 West 0 30.04 0.00
KILELBUR6 Elburn Columbine Square 07/11 18:51:36 74.9 62.0 65 0 East 0 30.03 0.00
KILBATAV5 Batavia Fermi National Accelerator Laboratory 07/11 18:51:26 77.2 59.0 53 1 SSE 7 30.03 0.00
KILWESTC5 West Chicago THEBROWNHOUSE.ORG 07/11 18:53:58 76.7 53.0 44 0 SSW 0 30.10 0.00
KILWESTC8 West Chicago Ingalton Hills Estates 07/11 18:54:03 75.0 58.0 56 0 NE 0 30.13 0.00
KILBARTL1 Bartlett Amber Grove KC9TVS 07/11 18:51:34 76.1 62.0 61 4 South 7 30.14 0.00
KILNORTH11 North Aurora Waterford Oaks 07/11 18:54:12 77.1 61.0 58 2 South 7 30.07 0.00
KILELGIN10 Elgin Wing Park 07/11 18:53:28 76.6 56.0 48 1 South 0 29.33 0.00
KILELGIN14 Elgin Elgin, IL 07/11 18:54:05 75.9 60.0 58 0 SSE 2 30.06 0.00
KILCAROL5 Carol Stream Stonehenge Court 07/11 18:50:05 76.8 33.0 20 0 SE 2 30.05 0.00
KILGILBE2 Gilberts Gilberts, IL 07/11 18:54:07 74.8 58.0 56 2 SW 3 30.31 0.00
KILELGIN11 Elgin Trout Park 07/11 18:54:10 74.8 58.0 55 1 East 3 30.11 0.00
KILWINFI3 Winfield Fredericksburg Farm 07/11 18:54:04 77.7 61.0 57 0 ESE 5 30.01 0.00
KILWINFI2 Winfield Winfield Heights (SarahNet) 07/11 18:46:18 76.3 60.0 57 1 South 7 30.08 0.00
KILSLEEP3 Sleepy Hollow SLEEPY HOLLOW 07/11 18:41:19 75.2 64.0 68 0 SW 0 29.56 0.00
KILCAROL6 Carol Stream Merbach Ct 07/11 18:54:05 77.7 59.0 52 3 West 4 30.06 0.00
KILSLEEP2 Sleepy Hollow Sleepy Hollow Manor 07/11 18:46:12 76.6 64.0 66 0 SSE 0 30.02 0.00
KILWARRE2 Warrenville meso_neigh31 07/11 18:54:03 77.4 60.0 56 2 SW 8 30.06 0.00
KILWHEAT8 Wheaton Wheaton Sanitary District 07/11 18:49:21 77.1 62.0 60 0 WSW 3 30.08 0.00
KILWARRE4 Warrenville Cerny Park 07/11 18:50:10 77.9 62.0 57 2 SW 2 30.26 0.00
KILWHEAT5 Wheaton N9ABF - West Wheaton 07/11 18:41:39 76.5 59.0 55 0 South 0 30.08 0.00
KILSCHAU9 Schaumburg Schaumburg West 07/11 18:54:12 77.2 68.0 74 3 SW 8 30.08 0.00
KILEASTD2 East Dundee Rock Road Industrial Park 07/11 18:50:06 74.3 57.0 55 3 SE 5 30.11 0.00
KILCARPE6 Carpentersville Carpentersville 07/11 18:53:45 73.2 66.0 77 0 WNW 0 29.24 0.01
KILWHEAT11 Wheaton Wheaton SW Orth Ct 07/11 18:54:13 76.7 60.0 57 0 ESE 0 30.22 0.00
KILNAPER19 Naperville Brookdale Lakes 07/11 18:54:09 77.9 59.0 52 1 ENE 12 30.06 0.00
KILCARPE5 Carpentersville Cville WWTF 07/11 18:53:19 75.6 66.0 71 0 SE 1 30.08 0.00
Full Advisory Text
No Warnings

Ambient Weather and Weather Underground
 Never base important decisions on this or any weather information obtained from the Internet
Updated Automatically by Ambient Weather's Virtual Weather Station  V13.01